Simultaneous Nadir Overpasses (SNOs) Predictions

Prediction of SNOs between AQUA and METOP-B Satellite Orbit:

Table of predicted SNOs for the next 14.0 days since TLE Epoch: 7/27/2013
Index Date (AQUA) Time (AQUA) Lat,Lon (AQUA) SZA (AQUA ) Date (METOP-B) Time (METOP-B) Lat,Lon (METOP-B) SZA (METOP-B ) Distance(km) Time Diff (sec)
1 07/29/2013 15:55:37 73.21, -63.35 54.63 07/29/2013 15:54:29 73.14, -65.51 54.67 69.91 68
2 07/29/2013 16:45:13 -73.77, 103.12 124.77 07/29/2013 16:44:59 -73.76, 103.22 124.78 3.31 14
3 07/29/2013 17:34:42 73.83, -89.39 55.31 07/29/2013 17:35:37 73.82, -89.30 55.29 2.98 55
4 08/01/2013 11:29:56 73.33, 2.83 55.45 08/01/2013 11:28:47 73.29, 1.23 55.49 51.35 69
5 08/01/2013 12:19:29 -73.73, 169.63 124.12 08/01/2013 12:19:21 -73.72, 169.52 124.13 3.86 8
6 08/01/2013 13:08:58 73.80, -22.88 55.97 08/01/2013 13:09:58 73.82, -22.90 55.98 2.30 60
7 08/04/2013 07:04:16 73.53, 68.86 56.39 08/04/2013 07:03:04 73.49, 68.08 56.39 24.97 72
8 08/04/2013 07:53:46 -73.76,-124.00 123.36 08/04/2013 07:53:41 -73.77,-123.95 123.35 1.69 5
9 08/04/2013 08:43:15 73.83, 43.47 56.74 08/04/2013 08:44:19 73.81, 43.50 56.71 2.59 64
10 08/07/2013 02:38:34 73.69, 134.95 57.32 08/07/2013 02:37:21 73.63, 134.82 57.29 7.67 73
11 08/07/2013 03:28:01 -73.75, -57.56 122.59 08/07/2013 03:28:01 -73.76, -57.55 122.59 0.83 0
12 08/07/2013 04:17:30 73.84, 109.90 57.51 08/07/2013 04:18:39 73.80, 109.89 57.47 3.68 69
13 08/09/2013 22:12:50 73.71,-158.66 58.15 08/09/2013 22:11:40 73.71,-158.56 58.17 3.23 70
14 08/09/2013 23:02:17 -73.77, 8.84 121.78 08/09/2013 23:02:22 -73.75, 8.85 121.79 1.77 5




NCC Satellite Simultaneous Nadir Overpasses (SNOs) Prediction Service
